FENGYUN 1C DEB, 30978

Orbit data source: Space-Track

FENGYUN 1C DEB, 30978 is space debris in SSO originally from a launch on Mon, 10 May 1999 UTC launched from the Taiyaun Space Center, China (TSC). Fengyun 1C debris stems from the Chinese weather satellite Fengyun-1C, which was intentionally destroyed by a Chinese anti-satellite missile in 2007. This event dramatically increased the amount of space debris, with thousands of trackable fragments posing hazards to satellites and human spaceflight. The Fengyun 1C debris cloud has become a focal point in discussions about space sustainability and the need for international regulations to prevent the creation of new debris.

Loading next visibility...
Identifier
30978, 1999-025BBU
Orbit
SSO
Country
Flag of CNCN / PRC
Related business
Manufacturer
Unknown
Mission
Spacecraft
Bus & Motor
Unknown
Mass
Unknown
Launch date (UTC)
1999-05-10 (27 years ago)
Launch vehicle
Unknown
Launch site
Taiyaun Space Center, China (TSC)
Object type
Payload
Rocket body
Debris
Shape & HBR
Unknown shape, 0.1 m
Radar Cross Section
Small (<0.1 m²)

Expand to show TLE details & history
Last TLE update: 11 months ago

TLE from 11 months ago
0 FENGYUN 1C DEB
1 30978U 99025BBU 25021.89831088  .00008468  00000-0  29941-2 0  9990
2 30978  98.2932  77.4253 0034293 124.4946 235.9486 14.34508905929726
Epoch: 2025-01-21T21:33Z
TLE epoch observation values (Epoch: 2025-01-21T21:33:34.060Z)
Latitude
-0.00005°
Longitude
-7.46454°
Altitude
793.445 km
Speed
7.45 km/s
True Right ascension
05h 09m 42s
True Declination
0° 00' 00"
Sunlit
Object was in full shadow at epoch
Visualization orbit readout
Latitude
Unknown
Longitude
Unknown
Altitude
Unknown
Speed
Unknown
Apparent Right ascension
Unknown
Apparent Declination
Unknown
Sunlit
N/A
Visualization observer readout
Local Sidereal Time
20:51:44
Azimuth
Unknown
Elevation
Unknown
Doppler factor
Unknown
Orbital elements
Apogee altitude
798.345 km
Perigee altitude
749.292 km
Semi-major axis
7,151.955 km
Eccentricity
0.00343
Inclination
98.2932°
RAAN
77.4253°
Arg. of periapsis
124.4946°
True anomaly
235.62379°
Mean anomaly
235.9486°
Eccentric anomaly
235.78612°
Mean motion
3.58844 °/min
Orbital period
100.32 mins
BSTAR
0.0029941
Loading maneuver chart data...
Computing Atmospheric mass density...

Documentation

Showing up to 5 results
|